[[{"header":{"parameterUnit":"m.s-1","parameterCategory":2,"la1":30.2991,"la2":30.254,"lo1":-89.0895,"lo2":-89.0444,"dy":0.0017,"dx":0.0017,"nx":28,"ny":28,"refTime":"2025-03-08T03:00:00:Z","depth":"0","parameterNumber":2,"parameterNumberName":"U-component_of_CURRENTS"},"data":[0,0,0,0,0,0,0,0,0,0,0,0,0,0,0,0,0,0,0,0,0,0,0,0,0,0,0,0,0,0,0,0,0,0,0,0,0,0,0,0,0,0,0,0,0,0,0,0,0,0,0,0,0,0,0,0,0,0,0.3329,0.3329,0,0.3374,0.3374,0.3374,0.3396,0.3396,0.3396,0.3396,0.3432,0.3433,0.3434,0,0,0,0,0,0,0,0,0,0,0,0,0,0.338,0.3378,0.3329,0.3329,0.333,0.3373,0.3374,0.3375,0.3396,0.3396,0.3396,0.3396,0.3432,0.3433,0.3434,0,0,0,0,0,0,0,0,0,0,0,0,0,0.3384,0.3378,0.3329,0.3346,0.3348,0.3373,0.3374,0.3375,0.3396,0.3396,0.3396,0.3396,0.3431,0.3433,0.3434,0.3442,0,0,0.3438,0.3439,0,0,0,0,0,0,0,0,0.3383,0.3382,0.3343,0.3345,0.3347,0.338,0.3406,0.3397,0.3396,0.3377,0.3396,0.3396,0.3414,0.3417,0.3424,0.3443,0.3445,0.3438,0.3439,0.344,0.344,0,0,0,0,0,0,0,0.3383,0.3381,0.3346,0.3344,0.3346,0.3393,0.3392,0.3405,0.3394,0.3379,0.338,0.3386,0.3415,0.3423,0.3425,0.3445,0.3438,0.344,0.344,0.3441,0.3555,0.3557,0,0,0,0,0,0,0.3372,0.3379,0.3345,0.3347,0.3367,0.3391,0.3391,0.3369,0.3394,0.3398,0.3386,0.3387,0.3421,0.3424,0.3427,0.3514,0.344,0.3441,0.3442,0.3552,0.3555,0.3557,0,0,0,0,0,0,0.3372,0.3367,0.3343,0.3367,0.3367,0.3389,0.3365,0.337,0.3381,0.34,0.3404,0.3394,0.3421,0.3425,0.346,0.3513,0.3442,0.3443,0.355,0.3553,0.3556,0.364,0,0,0,0,0,0,0.3373,0.3366,0.3357,0.3365,0.3365,0.3373,0.3366,0.337,0.3385,0.3386,0.3408,0.3411,0.3421,0.3458,0.3461,0.3513,0.3444,0.3547,0.3551,0.3555,0.3634,0.3645,0.3655,0,0,0,0,0,0.3374,0.3372,0.3355,0.3352,0.3346,0.3374,0.338,0.3396,0.3385,0.3403,0.342,0.3411,0.3487,0.346,0.3464,0.3518,0.3545,0.355,0.3555,0.3629,0.3643,0.3655,0,0,0,0,0,0,0.3402,0.3374,0.3356,0.3346,0.3361,0.3379,0.3401,0.3397,0.3422,0.3424,0.3429,0.3435,0.3492,0.3487,0.3457,0.3564,0.3518,0.3524,0.3574,0.3587,0.3597,0.3631,0.3445,0,0,0,0,0,0.3396,0.3382,0.3372,0.3371,0.3374,0.3381,0.3394,0.3401,0.3421,0.3431,0.3447,0.3472,0.3514,0.3533,0.3563,0.3608,0.3663,0.3648,0.3659,0.3667,0.3699,0.3819,0.3844,0.3574,0.3574,0.3573,0,0,0.3409,0.3394,0.3387,0.3377,0.3387,0.3419,0.339,0.3416,0.346,0.3431,0.3495,0.3505,0.3533,0.36,0.3625,0.3602,0.3778,0.3674,0.3681,0.3708,0.3827,0.3853,0.3877,0.3577,0.3576,0.3576,0,0,0.3445,0.3411,0.3414,0.3429,0.3441,0.3453,0.3458,0.3473,0.3496,0.3538,0.355,0.3594,0.3628,0.3685,0.3711,0.3793,0.3828,0.3793,0.3877,0.3992,0.4016,0.4038,0.4165,0.4197,0.3799,0.38,0.38,0,0.3464,0.3456,0.343,0.3453,0.348,0.3469,0.3507,0.3537,0.3569,0.3605,0.357,0.3675,0.3683,0.3804,0.3835,0.3821,0.3893,0.3824,0.4009,0.4031,0.4052,0.4176,0.4211,0.3804,0.3804,0.3803,0.3803,0,0.3505,0.3509,0.3525,0.354,0.3571,0.3604,0.3634,0.3673,0.3679,0.3708,0.3801,0.382,0.3891,0.3898,0.3888,0.4046,0.4054,0.4007,0.3979,0.4085,0.4208,0.4243,0.3811,0.3809,0.3808,0.3807,0,0,0.3512,0.3542,0.3546,0.3575,0.3617,0.3649,0.3731,0.3802,0.3872,0.3897,0.4002,0.4059,0.4063,0.4095,0.41,0.4188,0.4387,0.4164,0.4168,0.4296,0.4674,0.4572,0.46,0.4375,0.4381,0.4385,0.471,0,0.355,0.3604,0.3614,0.3696,0.3731,0.3767,0.385,0.3921,0.3972,0.4073,0.4115,0.4204,0.4144,0.4184,0.4271,0.4349,0.4479,0.4305,0.4548,0.4556,0.4458,0.4636,0.4321,0.4573,0.4743,0.4749,0.4753,0,0.3579,0.3613,0.3685,0.3773,0.3792,0.3849,0.398,0.4052,0.4187,0.4229,0.4325,0.436,0.4505,0.4423,0.4658,0.4551,0.4643,0.4696,0.4709,0.4611,0.4519,0.4491,0.4629,0.4471,0.4806,0.4802,0.4798,0,0.3591,0.3665,0.3725,0.3755,0.3854,0.3908,0.3969,0.4097,0.419,0.4342,0.4431,0.457,0.4668,0.4787,0.489,0.4798,0.5157,0.5036,0.5056,0.505,0.4829,0.4792,0.4843,0.5261,0.526,0.5259,0.5258,0,0.362,0.3667,0.3734,0.3769,0.3873,0.3928,0.4061,0.414,0.4294,0.4436,0.4513,0.4666,0.4767,0.4958,0.5013,0.5165,0.5274,0.5137,0.5146,0.4848,0.4811,0.4695,0.4641,0.5271,0.5268,0.5266,0.5264,0,0.3619,0.3658,0.3738,0.3838,0.3878,0.395,0.4104,0.421,0.4337,0.4537,0.4598,0.4805,0.5021,0.5151,0.5379,0.5333,0.5309,0.5512,0.5161,0.512,0.4858,0.482,0.4815,0.4676,0.5545,0.5545,0.5545,0,0.3623,0.366,0.3777,0.3839,0.3882,0.3996,0.4088,0.422,0.434,0.4625,0.4734,0.4999,0.5175,0.5463,0.5436,0.5557,0.5393,0.5324,0.506,0.4865,0.4833,0.4664,0.4534,0.4827,0.4821,0.4816,0.4812,0,0.3646,0.3683,0.3752,0.387,0.3964,0.4067,0.4199,0.4295,0.4478,0.4637,0.4864,0.5024,0.5266,0.521,0.5346,0.5351,0.4988,0.522,0.5111,0.4376,0.4108,0.3967,0.4619,0.4768,0.4772,0.4775,0.4778,0.478,0.3675,0.3723,0.3816,0.3922,0.4017,0.4105,0.4162,0.4301,0.4454,0.4617,0.484,0.4934,0.4941,0.5036,0.5043,0.4721,0.4771,0.4455,0.4472,0.4355,0.4058,0.4628,0.4704,0.4708,0.4712,0.4715,0.4717,0,0.3734,0.3783,0.3871,0.398,0.4043,0.4096,0.4219,0.4227,0.4335,0.4467,0.4601,0.4503,0.4452,0.4413,0.4156,0.3957,0.3774,0.3832,0.3495,0.3438,0.4023,0.3818,0.3589,0.3589,0.3589,0.359,0.359,0.359,0.3777,0.3861,0.3888,0.3978,0.4031,0.405,0.408,0.4074,0.4107,0.4,0.3881,0.3906,0.3899,0.3794,0.3511,0.3408,0.315,0.2983,0.3093,0.3449,0.3505,0.3559,0.335,0.3027,0.3027,0.225,0.2244,0.224]},{"header":{"parameterUnit":"m.s-1","parameterCategory":2,"la1":30.2991,"la2":30.254,"lo1":-89.0895,"lo2":-89.0444,"dy":0.0017,"dx":0.0017,"nx":28,"ny":28,"refTime":"2025-03-08T03:00:00:Z","depth":"0","parameterNumber":3,"parameterNumberName":"V-component_of_CURRENTS"},"data":[0,0,0,0,0,0,0,0,0,0,0,0,0,0,0,0,0,0,0,0,0,0,0,0,0,0,0,0,0,0,0,0,0,0,0,0,0,0,0,0,0,0,0,0,0,0,0,0,0,0,0,0,0,0,0,0,0,0,-0.0099,-0.01,0,-0.0162,-0.0163,-0.0164,-0.0228,-0.0229,-0.023,-0.023,-0.0321,-0.0323,-0.0324,0,0,0,0,0,0,0,0,0,0,0,0,0,-0.0093,-0.0092,-0.0099,-0.01,-0.01,-0.0162,-0.0163,-0.0164,-0.0228,-0.0229,-0.023,-0.0231,-0.032,-0.0322,-0.0324,0,0,0,0,0,0,0,0,0,0,0,0,0,-0.0122,-0.0092,-0.0099,-0.0138,-0.0142,-0.0162,-0.0163,-0.0164,-0.0228,-0.0229,-0.023,-0.0231,-0.0319,-0.0322,-0.0325,-0.0322,0,0,-0.0333,-0.0334,0,0,0,0,0,0,0,0,-0.012,-0.0122,-0.0132,-0.0135,-0.0139,-0.0186,-0.0194,-0.0218,-0.0228,-0.0198,-0.023,-0.0231,-0.0276,-0.0282,-0.0295,-0.0327,-0.0331,-0.0333,-0.0335,-0.0336,-0.0337,0,0,0,0,0,0,0,-0.0118,-0.012,-0.0127,-0.0132,-0.0137,-0.0172,-0.0177,-0.0199,-0.0233,-0.0201,-0.0205,-0.0207,-0.0279,-0.0292,-0.0298,-0.0332,-0.0333,-0.0336,-0.0337,-0.0338,-0.0379,-0.0378,0,0,0,0,0,0,-0.01,-0.0118,-0.0125,-0.0128,-0.0129,-0.017,-0.0176,-0.0172,-0.0233,-0.0242,-0.0206,-0.021,-0.0287,-0.0295,-0.0301,-0.0296,-0.0336,-0.0339,-0.034,-0.0379,-0.0379,-0.0378,0,0,0,0,0,0,-0.01,-0.01,-0.0122,-0.0123,-0.0128,-0.0169,-0.0164,-0.0173,-0.0185,-0.0236,-0.0247,-0.0209,-0.0288,-0.0297,-0.0317,-0.03,-0.034,-0.0342,-0.038,-0.0379,-0.0378,-0.0289,0,0,0,0,0,0,-0.0099,-0.0099,-0.0093,-0.0121,-0.0127,-0.0124,-0.0163,-0.0173,-0.0184,-0.0189,-0.0242,-0.0251,-0.029,-0.0313,-0.032,-0.0305,-0.0345,-0.0381,-0.038,-0.0379,-0.0293,-0.0285,-0.0279,0,0,0,0,0,-0.0099,-0.0084,-0.0093,-0.0094,-0.0116,-0.0123,-0.0129,-0.0164,-0.0182,-0.018,-0.0218,-0.025,-0.0312,-0.0314,-0.0323,-0.0308,-0.0381,-0.038,-0.0379,-0.0296,-0.0287,-0.0279,0,0,0,0,0,0,-0.0081,-0.0089,-0.01,-0.0089,-0.01,-0.0133,-0.0135,-0.0154,-0.0182,-0.019,-0.024,-0.0252,-0.0268,-0.0297,-0.0299,-0.0318,-0.0352,-0.0352,-0.0286,-0.0278,-0.0271,-0.0242,-0.0347,0,0,0,0,0,-0.007,-0.0063,-0.0076,-0.0069,-0.0069,-0.0099,-0.0107,-0.0126,-0.0152,-0.0166,-0.0201,-0.0239,-0.0268,-0.028,-0.0314,-0.0316,-0.0317,-0.0313,-0.0306,-0.03,-0.0283,-0.0283,-0.0274,-0.0374,-0.0374,-0.0374,0,0,-0.0064,-0.0066,-0.0064,-0.0064,-0.0079,-0.0068,-0.0107,-0.011,-0.0101,-0.017,-0.0174,-0.0218,-0.0265,-0.0276,-0.0284,-0.0297,-0.0266,-0.0299,-0.0293,-0.0278,-0.0281,-0.0271,-0.0262,-0.0373,-0.0373,-0.0373,0,0,-0.0035,-0.0044,-0.0022,-0.0025,-0.0031,-0.0045,-0.0039,-0.0061,-0.0071,-0.0079,-0.0128,-0.0154,-0.0198,-0.0224,-0.0244,-0.0216,-0.0235,-0.0232,-0.0165,-0.0166,-0.0157,-0.0149,-0.0105,-0.0095,-0.0222,-0.0221,-0.0221,0,-0.0025,0.0004,-0.0018,0.0004,0.001,-0.0027,0.0002,-0.0012,-0.0038,-0.0034,-0.007,-0.0124,-0.0171,-0.0171,-0.0169,-0.0198,-0.0187,-0.0191,-0.0154,-0.0147,-0.0141,-0.0098,-0.0087,-0.0217,-0.0218,-0.0218,-0.0218,0,0.0023,0.0045,0.0057,0.0075,0.0076,0.0094,0.008,0.0082,0.0061,0.0045,0.0036,-0.0027,-0.0057,-0.0078,-0.0119,-0.0095,-0.0096,-0.0149,-0.0169,-0.0125,-0.0083,-0.0073,-0.0211,-0.0212,-0.0214,-0.0215,0,0,0.0056,0.0089,0.0094,0.0122,0.012,0.0132,0.015,0.0167,0.0189,0.0149,0.0177,0.0112,0.0075,0.005,-0.0002,-0.0003,0.0047,-0.0048,-0.0051,0.0009,0.0088,0.0078,0.0087,0.0001,0.0002,0.0003,0.0113,0,0.0107,0.0173,0.017,0.0227,0.0261,0.0241,0.0265,0.0267,0.0252,0.0266,0.0215,0.0205,0.0125,0.0112,0.0098,0.0046,0.0071,0.0025,0.0025,0.0027,0.0021,0.0097,0.0088,0.0183,0.0122,0.0124,0.0125,0,0.0162,0.0202,0.0272,0.0323,0.0336,0.0356,0.0393,0.0411,0.0412,0.0401,0.0381,0.0332,0.0319,0.0239,0.0212,0.0187,0.0157,0.0125,0.0127,0.0092,0.0033,0.012,0.0202,0.0001,0.0139,0.0138,0.0137,0,0.0211,0.0275,0.0339,0.0353,0.0396,0.0424,0.0445,0.0453,0.0482,0.0489,0.0506,0.0465,0.046,0.04,0.0324,0.0271,0.0315,0.0225,0.0208,0.0209,0.0189,0.0185,0.0086,0.024,0.024,0.0239,0.0239,0,0.0273,0.0323,0.0367,0.0402,0.0475,0.0482,0.0546,0.0559,0.0586,0.0645,0.0578,0.0624,0.0497,0.0492,0.0401,0.0357,0.0378,0.0255,0.0238,0.0222,0.022,0.0031,-0.009,0.0243,0.0242,0.0242,0.0241,0,0.0319,0.0347,0.0423,0.0482,0.05,0.0552,0.0609,0.0657,0.0675,0.0753,0.0765,0.0761,0.0773,0.0676,0.0612,0.0475,0.0318,0.0406,0.0421,0.0403,0.0139,0.0025,-0.0063,-0.0138,0.0386,0.0386,0.0387,0,0.0354,0.0397,0.0476,0.0517,0.0545,0.0612,0.066,0.0694,0.075,0.0853,0.0908,0.0951,0.1035,0.0948,0.0741,0.0629,0.0418,0.0474,0.0344,0.0155,0.0015,-0.008,-0.0145,0.0376,0.0377,0.0377,0.0377,0,0.0411,0.0432,0.049,0.0575,0.0632,0.071,0.0786,0.0846,0.0919,0.1018,0.1181,0.1276,0.1222,0.1123,0.0921,0.0773,0.0301,0.0472,0.0263,0.0001,-0.0094,-0.0184,0.0298,0.0379,0.0378,0.0378,0.0378,0.0378,0.0441,0.0485,0.0547,0.0628,0.0705,0.0805,0.0885,0.1008,0.1151,0.1383,0.143,0.1693,0.1428,0.1176,0.0918,0.0365,0.037,0.0167,0.0057,-0.0012,-0.0137,0.0371,0.042,0.042,0.042,0.042,0.042,0,0.0465,0.0508,0.0592,0.069,0.0788,0.082,0.0966,0.1099,0.132,0.1648,0.1865,0.1951,0.1592,0.1161,0.0422,0.002,-0.016,-0.022,-0.0383,-0.0421,0.0029,-0.0029,-0.006,-0.006,-0.006,-0.006,-0.006,-0.0059,0.0472,0.0537,0.0578,0.0727,0.0812,0.0949,0.1043,0.1298,0.1575,0.2031,0.2311,0.25,0.2089,0.0698,-0.0221,-0.0427,-0.0747,-0.0796,-0.0925,-0.0673,-0.0646,-0.0622,-0.0707,-0.0879,-0.088,-0.1339,-0.1344,-0.1348]}],[{"header":{"parameterUnit":"m.s-1","parameterCategory":2,"la1":30.2991,"la2":30.254,"lo1":-89.0895,"lo2":-89.0444,"dy":0.0017,"dx":0.0017,"nx":28,"ny":28,"refTime":"2025-03-08T03:00:00:Z","depth":"2","parameterNumber":2,"parameterNumberName":"U-component_of_CURRENTS"},"data":[0,0,0,0,0,0,0,0,0,0,0,0,0,0,0,0,0,0,0,0,0,0,0,0,0,0,0,0,0,0,0,0,0,0,0,0,0,0,0,0,0,0,0,0,0,0,0,0,0,0,0,0,0,0,0,0,0,0,0.2552,0.2552,0,0.2582,0.2583,0.2583,0.2592,0.2592,0.2592,0.2592,0.261,0.2611,0.2611,0,0,0,0,0,0,0,0,0,0,0,0,0,0.251,0.251,0.2552,0.2552,0.2553,0.2582,0.2583,0.2583,0.2592,0.2592,0.2592,0.2592,0.261,0.2611,0.2611,0,0,0,0,0,0,0,0,0,0,0,0,0,0.2531,0.251,0.2552,0.2562,0.2563,0.2582,0.2583,0.2583,0.2592,0.2592,0.2592,0.2592,0.261,0.2611,0.2611,0.2617,0,0,0.2614,0.2614,0,0,0,0,0,0,0,0,0.253,0.2533,0.256,0.2561,0.2563,0.2584,0.2575,0.2594,0.2592,0.2579,0.2592,0.2592,0.2601,0.2603,0.2607,0.2618,0.2619,0.2614,0.2614,0.2615,0.2615,0,0,0,0,0,0,0,0.2529,0.2532,0.2562,0.256,0.2562,0.2568,0.2571,0.2578,0.2589,0.2581,0.2582,0.2587,0.2602,0.2606,0.2607,0.2619,0.2614,0.2615,0.2615,0.2615,0.2697,0.2698,0,0,0,0,0,0,0.2527,0.253,0.2562,0.2564,0.2548,0.2569,0.2572,0.2576,0.2589,0.2592,0.2587,0.2588,0.2605,0.2606,0.2608,0.2671,0.2615,0.2615,0.2616,0.2695,0.2697,0.2699,0,0,0,0,0,0,0.2526,0.253,0.256,0.2549,0.2553,0.257,0.2575,0.2577,0.2595,0.2595,0.2597,0.2604,0.2605,0.2607,0.2634,0.267,0.2616,0.2616,0.2693,0.2696,0.2698,0.2761,0,0,0,0,0,0,0.2525,0.2529,0.2537,0.2549,0.2554,0.2583,0.2575,0.2578,0.2598,0.2599,0.261,0.261,0.2605,0.2633,0.2635,0.267,0.2617,0.2691,0.2694,0.2697,0.2757,0.2766,0.2773,0,0,0,0,0,0.2523,0.2533,0.2537,0.2541,0.2562,0.2584,0.2588,0.2598,0.2599,0.2612,0.2623,0.2611,0.2654,0.2635,0.2636,0.2673,0.2689,0.2693,0.2697,0.2754,0.2764,0.2773,0,0,0,0,0,0,0.2516,0.2535,0.254,0.2554,0.2574,0.2587,0.2602,0.2608,0.2627,0.2631,0.2628,0.263,0.267,0.2662,0.264,0.2707,0.2672,0.2676,0.2715,0.2724,0.2732,0.2751,0.2618,0,0,0,0,0,0.2519,0.2531,0.2551,0.2563,0.2577,0.2592,0.2604,0.2614,0.263,0.2638,0.2646,0.2661,0.2686,0.2696,0.2711,0.2742,0.2765,0.2769,0.2777,0.2783,0.2801,0.2854,0.2869,0.2712,0.2711,0.2711,0,0,0.2517,0.2531,0.2537,0.2563,0.258,0.2608,0.26,0.2626,0.2655,0.2637,0.2679,0.2689,0.2701,0.2741,0.2759,0.2739,0.2846,0.2788,0.2794,0.2808,0.286,0.2875,0.2889,0.2714,0.2714,0.2713,0,0,0.2526,0.2538,0.2556,0.2578,0.261,0.2625,0.2637,0.2663,0.2683,0.2719,0.2723,0.2761,0.2779,0.2808,0.2822,0.2884,0.2888,0.2883,0.2938,0.2989,0.3002,0.3014,0.3087,0.3105,0.2885,0.2885,0.2885,0,0.2528,0.2547,0.2565,0.2594,0.2619,0.2637,0.2671,0.2696,0.2727,0.2755,0.274,0.2813,0.2819,0.2891,0.2913,0.2905,0.2936,0.2898,0.3,0.3012,0.3023,0.3094,0.3113,0.2889,0.2888,0.2888,0.2888,0,0.255,0.2572,0.2587,0.2631,0.2666,0.2692,0.2736,0.2765,0.2788,0.2818,0.289,0.2907,0.2955,0.2963,0.2956,0.3045,0.3043,0.3005,0.2975,0.3043,0.3114,0.3133,0.2894,0.2893,0.2891,0.2891,0,0,0.2533,0.2591,0.2595,0.2617,0.2687,0.2707,0.2775,0.2837,0.288,0.2923,0.2989,0.3045,0.3066,0.3085,0.309,0.313,0.3241,0.3103,0.3104,0.3176,0.3376,0.3292,0.3304,0.3213,0.3216,0.3218,0.3402,0,0.2545,0.2592,0.263,0.2678,0.271,0.2759,0.2817,0.2881,0.2936,0.3001,0.3056,0.3123,0.3111,0.3141,0.3188,0.323,0.3289,0.3196,0.33,0.3304,0.3219,0.3322,0.3034,0.3165,0.342,0.3423,0.3426,0,0.2554,0.2585,0.2638,0.2699,0.2719,0.2759,0.2853,0.2916,0.3026,0.3066,0.3157,0.3201,0.3312,0.3261,0.3408,0.3348,0.3378,0.3398,0.3404,0.3315,0.3253,0.3134,0.3189,0.3457,0.3454,0.3452,0.345,0,0.2522,0.2585,0.2624,0.2646,0.2727,0.2765,0.2827,0.2942,0.3015,0.3134,0.3206,0.3312,0.3393,0.3453,0.3524,0.3475,0.3659,0.3593,0.3555,0.3551,0.3323,0.3292,0.3688,0.3688,0.3688,0.3687,0.3687,0,0.2515,0.2534,0.2606,0.2617,0.267,0.2757,0.2849,0.2908,0.3048,0.3142,0.3258,0.3351,0.344,0.3554,0.3582,0.3653,0.3724,0.3603,0.3598,0.3338,0.3308,0.3556,0.3538,0.3694,0.3693,0.3691,0.369,0,0.2476,0.2517,0.2551,0.2628,0.2654,0.2707,0.2856,0.2922,0.3069,0.32,0.3253,0.3425,0.3568,0.3662,0.3769,0.3736,0.3794,0.3789,0.3493,0.3449,0.3641,0.3624,0.3782,0.3781,0.378,0.3779,0.3778,0,0.2454,0.2475,0.2543,0.256,0.2594,0.2691,0.2755,0.2907,0.298,0.3234,0.3274,0.3486,0.357,0.3744,0.3725,0.3785,0.3831,0.3527,0.3364,0.3674,0.3654,0.3639,0.3625,0.3109,0.3103,0.3098,0.3094,0,0.2413,0.2444,0.2463,0.252,0.257,0.2634,0.2731,0.2788,0.2971,0.3074,0.3223,0.3334,0.3525,0.3443,0.3524,0.3508,0.349,0.3424,0.3848,0.3113,0.3049,0.3026,0.3032,0.3049,0.3053,0.3056,0.3059,0.3061,0.237,0.2391,0.243,0.2469,0.252,0.2556,0.2556,0.2662,0.2748,0.2858,0.3041,0.3111,0.3197,0.3171,0.3108,0.3065,0.3293,0.3125,0.3137,0.3155,0.3028,0.2962,0.2926,0.2929,0.2932,0.2935,0.2938,0,0.2328,0.2364,0.2386,0.2404,0.2393,0.2482,0.2508,0.2461,0.2483,0.2637,0.2725,0.2573,0.2572,0.2676,0.2536,0.2544,0.2482,0.244,0.2323,0.2372,0.2415,0.2244,0.1937,0.1934,0.193,0.1927,0,0,0.2317,0.2295,0.2311,0.2257,0.2293,0.2253,0.224,0.2178,0.2199,0.2167,0.2199,0.2453,0.2586,0.2217,0.2188,0.2027,0.217,0.1951,0.2763,0.2674,0.2711,0.2836,0.2632,0,0,0,0,0]},{"header":{"parameterUnit":"m.s-1","parameterCategory":2,"la1":30.2991,"la2":30.254,"lo1":-89.0895,"lo2":-89.0444,"dy":0.0017,"dx":0.0017,"nx":28,"ny":28,"refTime":"2025-03-08T03:00:00:Z","depth":"2","parameterNumber":3,"parameterNumberName":"V-component_of_CURRENTS"},"data":[0,0,0,0,0,0,0,0,0,0,0,0,0,0,0,0,0,0,0,0,0,0,0,0,0,0,0,0,0,0,0,0,0,0,0,0,0,0,0,0,0,0,0,0,0,0,0,0,0,0,0,0,0,0,0,0,0,0,0.0078,0.0078,0,0.0031,0.003,0.003,-0.0006,-0.0007,-0.0007,-0.0007,-0.0061,-0.0062,-0.0064,0,0,0,0,0,0,0,0,0,0,0,0,0,0.0103,0.0103,0.0078,0.0077,0.0077,0.0031,0.003,0.003,-0.0006,-0.0007,-0.0007,-0.0007,-0.0061,-0.0062,-0.0064,0,0,0,0,0,0,0,0,0,0,0,0,0,0.0077,0.0103,0.0078,0.0054,0.0051,0.0031,0.003,0.003,-0.0006,-0.0007,-0.0007,-0.0007,-0.006,-0.0062,-0.0064,-0.0066,0,0,-0.0069,-0.007,0,0,0,0,0,0,0,0,0.0079,0.0076,0.0058,0.0056,0.0053,0.0018,0.0019,-0.0003,-0.0006,0.0015,-0.0007,-0.0008,-0.0035,-0.0039,-0.0047,-0.0069,-0.0071,-0.0069,-0.0071,-0.0071,-0.0072,0,0,0,0,0,0,0,0.0081,0.0078,0.0059,0.0058,0.0054,0.0034,0.003,0.0015,-0.0007,0.0013,0.0011,0.0006,-0.0036,-0.0045,-0.0049,-0.0072,-0.0069,-0.0071,-0.0072,-0.0073,-0.0097,-0.0096,0,0,0,0,0,0,0.009,0.008,0.006,0.0057,0.0066,0.0034,0.003,0.0029,-0.0007,-0.0013,0.0007,0.0005,-0.0042,-0.0047,-0.0051,-0.0041,-0.0071,-0.0073,-0.0074,-0.0097,-0.0096,-0.0096,0,0,0,0,0,0,0.0091,0.0089,0.0062,0.0068,0.0063,0.0034,0.0034,0.0029,0.0021,-0.0012,-0.0018,0.0005,-0.0043,-0.0048,-0.006,-0.0044,-0.0074,-0.0075,-0.0097,-0.0097,-0.0096,-0.0031,0,0,0,0,0,0,0.0092,0.009,0.0091,0.0069,0.0063,0.0061,0.0034,0.0028,0.0019,0.0016,-0.0015,-0.0021,-0.0043,-0.0057,-0.0062,-0.0047,-0.0077,-0.0098,-0.0097,-0.0096,-0.0034,-0.0029,-0.0024,0,0,0,0,0,0.0093,0.0103,0.0091,0.0089,0.0067,0.0062,0.0057,0.0034,0.002,0.0024,-0.0001,-0.002,-0.0056,-0.0058,-0.0064,-0.0049,-0.0098,-0.0097,-0.0097,-0.0036,-0.003,-0.0024,0,0,0,0,0,0,0.0113,0.0099,0.0086,0.009,0.008,0.0056,0.0055,0.004,0.0023,0.0018,-0.0015,-0.0022,-0.0029,-0.0048,-0.005,-0.0055,-0.008,-0.008,-0.0032,-0.0026,-0.0021,-0.0002,-0.0078,0,0,0,0,0,0.0118,0.0122,0.0105,0.0107,0.0105,0.008,0.0074,0.0061,0.0043,0.0034,0.0011,-0.0012,-0.0029,-0.0035,-0.0055,-0.0054,-0.0076,-0.0049,-0.0044,-0.0039,-0.0028,-0.0056,-0.0052,-0.0093,-0.0093,-0.0093,0,0,0.0125,0.0118,0.0119,0.0112,0.0099,0.011,0.0075,0.0073,0.0083,0.0032,0.0034,0.0002,-0.0027,-0.0029,-0.0033,-0.0041,-0.0038,-0.0038,-0.0034,-0.0025,-0.0054,-0.005,-0.0047,-0.0092,-0.0092,-0.0092,0,0,0.0151,0.0137,0.0153,0.0151,0.0141,0.013,0.0133,0.0114,0.0106,0.0102,0.0068,0.0048,0.0023,0.0008,-0.0003,0.0018,-0.0015,0.001,0.0058,0.0031,0.0035,0.0037,0.002,0.002,0.0019,0.0019,0.0019,0,0.0159,0.0178,0.0156,0.0174,0.0181,0.0145,0.017,0.0159,0.0138,0.014,0.0112,0.0073,0.0043,0.0047,0.0051,0.0031,0.0012,0.0039,0.0039,0.0041,0.0042,0.0024,0.0023,0.0022,0.0022,0.0021,0.0021,0,0.0201,0.0215,0.0226,0.0239,0.0242,0.0256,0.0244,0.0245,0.0224,0.021,0.02,0.0151,0.0131,0.0115,0.0088,0.0091,0.0072,0.0044,0.0026,0.0051,0.0029,0.0028,0.0027,0.0025,0.0024,0.0024,0,0,0.0224,0.0251,0.0256,0.0281,0.028,0.0294,0.031,0.0321,0.0344,0.03,0.0321,0.0269,0.0234,0.0218,0.0177,0.0152,0.0139,0.0109,0.0106,0.0098,0.0087,0.0054,0.0049,0.0109,0.0109,0.0109,0.007,0,0.0265,0.0323,0.032,0.0375,0.0406,0.0389,0.0415,0.0417,0.0405,0.0414,0.0355,0.0351,0.0277,0.027,0.023,0.0167,0.0137,0.0153,0.0059,0.0057,0.003,0.0047,0.0072,0.0037,0.0068,0.0068,0.0067,0,0.031,0.0347,0.0411,0.0463,0.0475,0.0498,0.054,0.0563,0.0559,0.0549,0.0519,0.0467,0.0427,0.0356,0.0254,0.0267,0.0184,0.0123,0.012,0.0067,0.0022,0.0016,0.0033,0.0065,0.0065,0.0065,0.0065,0,0.0355,0.0412,0.047,0.0486,0.0533,0.056,0.0587,0.0602,0.065,0.0638,0.0665,0.058,0.0567,0.0441,0.0301,0.028,0.0187,0.0141,0.0033,0.003,0.0023,0.0019,0.0065,0.0065,0.0065,0.0066,0.0066,0,0.0406,0.0452,0.0498,0.0532,0.0614,0.0623,0.0711,0.0719,0.0762,0.0845,0.0744,0.0782,0.0587,0.0504,0.0348,0.0195,0.0219,0.005,0.0019,0.0046,0.0045,0.0042,0.004,0.0064,0.0064,0.0065,0.0065,0,0.0445,0.0471,0.055,0.0613,0.0638,0.0701,0.0806,0.0887,0.0899,0.1005,0.101,0.0944,0.0835,0.0633,0.0444,0.0282,0.012,0.0056,0.0103,0.0077,-0.0031,-0.003,-0.0066,-0.0067,-0.0068,-0.0069,-0.007,0,0.0472,0.0514,0.0613,0.0677,0.0708,0.0807,0.0899,0.0951,0.1053,0.1121,0.1193,0.1103,0.1066,0.0762,0.046,0.0179,0.0136,0.0009,-0.0041,-0.0018,-0.0044,-0.0041,-0.0038,-0.0021,-0.0021,-0.0021,-0.0022,0,0.0528,0.056,0.0632,0.0764,0.0867,0.1003,0.1131,0.1227,0.1322,0.1391,0.1473,0.1434,0.1148,0.0854,0.0447,0.0254,0.0047,-0.0008,0.0016,0.0003,0.0019,-0.0005,-0.0002,-0.0024,-0.0024,-0.0024,-0.0024,-0.0024,0.0576,0.0641,0.0742,0.0872,0.1002,0.1188,0.1321,0.1461,0.1615,0.1726,0.1674,0.1609,0.1271,0.0741,0.0405,0.0038,0.0047,-0.0093,-0.009,-0.0087,-0.008,-0.0067,-0.0125,-0.0126,-0.0126,-0.0126,-0.0126,0,0.0648,0.0727,0.085,0.1021,0.118,0.1237,0.148,0.1608,0.1797,0.1845,0.1873,0.1531,0.1191,0.0802,0.026,-0.0063,-0.0083,-0.0166,-0.0119,-0.0114,-0.011,-0.0104,-0.0156,-0.0157,-0.0158,-0.0159,0,0,0.0692,0.0824,0.0893,0.1148,0.1268,0.1503,0.1652,0.1824,0.1909,0.1937,0.187,0.1762,0.1287,0.0893,0.046,0.015,0.0093,0.0089,0.0147,0.0258,0.0266,-0.0038,-0.0018,0,0,0,0,0]}],[{"header":{"parameterUnit":"m.s-1","parameterCategory":2,"la1":30.2991,"la2":30.254,"lo1":-89.0895,"lo2":-89.0444,"dy":0.0017,"dx":0.0017,"nx":28,"ny":28,"refTime":"2025-03-08T03:00:00:Z","depth":"4","parameterNumber":2,"parameterNumberName":"U-component_of_CURRENTS"},"data":[0,0,0,0,0,0,0,0,0,0,0,0,0,0,0,0,0,0,0,0,0,0,0,0,0,0,0,0,0,0,0,0,0,0,0,0,0,0,0,0,0,0,0,0,0,0,0,0,0,0,0,0,0,0,0,0,0,0,0.1612,0.1613,0,0.1669,0.1669,0.167,0.1718,0.1719,0.172,0.172,0.1777,0.1778,0.1779,0,0,0,0,0,0,0,0,0,0,0,0,0,0.153,0.1531,0.1612,0.1613,0.1614,0.1668,0.1669,0.167,0.1718,0.1719,0.172,0.1721,0.1777,0.1778,0.1779,0,0,0,0,0,0,0,0,0,0,0,0,0,0.1572,0.1531,0.1612,0.1646,0.165,0.1668,0.1669,0.167,0.1718,0.1719,0.172,0.1721,0.1776,0.1778,0.1779,0.1764,0,0,0.1782,0.1783,0,0,0,0,0,0,0,0,0.1569,0.1574,0.164,0.1644,0.1648,0.1689,0.1661,0.1702,0.1718,0.169,0.172,0.1722,0.1748,0.1752,0.1757,0.1767,0.1769,0.1783,0.1783,0.1784,0.1784,0,0,0,0,0,0,0,0.1566,0.1572,0.1632,0.1641,0.1646,0.1653,0.166,0.1669,0.171,0.1692,0.1696,0.1706,0.175,0.1756,0.1759,0.177,0.1783,0.1784,0.1784,0.1785,0.1881,0.1883,0,0,0,0,0,0,0.1563,0.1569,0.163,0.1634,0.1613,0.1654,0.1662,0.1673,0.171,0.1718,0.1705,0.1708,0.1753,0.1757,0.1761,0.1841,0.1784,0.1785,0.1786,0.188,0.1882,0.1884,0,0,0,0,0,0,0.1561,0.1568,0.1628,0.1605,0.1613,0.1655,0.1667,0.1674,0.1716,0.172,0.1728,0.1745,0.1754,0.1759,0.1802,0.184,0.1786,0.1787,0.1877,0.188,0.1883,0.1941,0,0,0,0,0,0,0.1559,0.1567,0.159,0.1604,0.1614,0.1661,0.1666,0.1674,0.1719,0.1725,0.1756,0.176,0.1755,0.1801,0.1804,0.1841,0.1788,0.1875,0.1879,0.1882,0.1937,0.1945,0.1953,0,0,0,0,0,0.1555,0.1575,0.1591,0.1599,0.164,0.1662,0.1669,0.1699,0.172,0.1742,0.1769,0.1761,0.1825,0.1803,0.1806,0.1845,0.1873,0.1878,0.1882,0.1933,0.1944,0.1953,0,0,0,0,0,0,0.155,0.1582,0.16,0.163,0.1657,0.1672,0.1701,0.172,0.1757,0.1776,0.1779,0.1785,0.1838,0.1834,0.181,0.1884,0.185,0.1855,0.1889,0.1898,0.1906,0.1913,0.1789,0,0,0,0,0,0.1559,0.1587,0.1613,0.164,0.1659,0.1687,0.1709,0.173,0.1757,0.1777,0.18,0.1827,0.185,0.187,0.1886,0.1923,0.1931,0.1953,0.1961,0.1967,0.1977,0.2023,0.2036,0.1897,0.1897,0.1897,0,0,0.1564,0.1588,0.1604,0.1643,0.1669,0.1696,0.1704,0.1747,0.1779,0.1775,0.1838,0.1856,0.1867,0.1911,0.1934,0.1917,0.2012,0.1973,0.1978,0.1984,0.2029,0.2042,0.2054,0.19,0.19,0.1899,0,0,0.1577,0.1613,0.1638,0.1664,0.1711,0.1728,0.1749,0.1788,0.1822,0.1871,0.1883,0.1928,0.1962,0.198,0.199,0.2053,0.2052,0.2066,0.2113,0.2158,0.217,0.218,0.2209,0.2222,0.2071,0.2071,0.2071,0,0.1588,0.1617,0.1649,0.1678,0.1704,0.1746,0.1775,0.1811,0.1863,0.1895,0.1903,0.198,0.1993,0.2045,0.2073,0.2071,0.2094,0.2072,0.2169,0.2179,0.2188,0.2215,0.2228,0.2074,0.2074,0.2073,0.2073,0,0.1605,0.1644,0.1663,0.1713,0.1746,0.178,0.1826,0.1877,0.1924,0.1956,0.2034,0.2057,0.2104,0.2118,0.2117,0.2195,0.2188,0.2171,0.2141,0.2206,0.223,0.2243,0.2079,0.2078,0.2077,0.2076,0,0,0.1586,0.166,0.1671,0.1699,0.1768,0.1789,0.186,0.1923,0.1973,0.2039,0.21,0.2159,0.2189,0.2204,0.2216,0.2259,0.2347,0.2255,0.2256,0.2279,0.2449,0.23,0.2299,0.2354,0.2356,0.2358,0.2439,0,0.1594,0.1642,0.1685,0.1738,0.1764,0.183,0.1883,0.1952,0.2017,0.2088,0.2146,0.2207,0.2216,0.225,0.23,0.2339,0.2383,0.2326,0.2388,0.2389,0.2245,0.2309,0.2366,0.2448,0.2451,0.2453,0.2455,0,0.159,0.1624,0.1672,0.1746,0.1766,0.1811,0.1905,0.1962,0.2072,0.2128,0.2215,0.2257,0.2352,0.2336,0.2453,0.2422,0.2449,0.2468,0.2471,0.2318,0.2262,0.2371,0.2477,0.2475,0.2473,0.2472,0.2471,0,0.1535,0.1614,0.165,0.1674,0.1762,0.1813,0.1874,0.1981,0.204,0.2167,0.2227,0.233,0.2404,0.2461,0.2526,0.2503,0.2632,0.2596,0.2483,0.2473,0.2556,0.2544,0.2669,0.2668,0.2668,0.2668,0.2668,0,0.1503,0.1536,0.1633,0.1649,0.1698,0.1785,0.1861,0.1941,0.2064,0.2129,0.2251,0.2316,0.2446,0.2529,0.2557,0.2566,0.2666,0.2503,0.2488,0.2578,0.2568,0.2565,0.2552,0.2671,0.267,0.267,0.2669,0,0.1427,0.1493,0.1535,0.1637,0.1671,0.171,0.1844,0.189,0.2036,0.2129,0.2177,0.2349,0.246,0.2554,0.2657,0.2599,0.2617,0.259,0.2695,0.2682,0.2416,0.2405,0.246,0.2456,0.2452,0.2449,0.2446,0,0.1387,0.14,0.1503,0.1521,0.1572,0.1652,0.1694,0.1852,0.1909,0.2122,0.2148,0.2322,0.2414,0.2454,0.2559,0.26,0.2571,0.2555,0.2469,0.2417,0.2398,0.2393,0.2388,0.244,0.2439,0.2438,0.2437,0,0.1298,0.1348,0.138,0.1424,0.1472,0.1513,0.1604,0.1638,0.1815,0.1971,0.2076,0.2153,0.2277,0.2366,0.2426,0.2443,0.2548,0.2515,0.2521,0.244,0.2393,0.2377,0.2376,0.2424,0.2426,0.2427,0.2428,0,0.1228,0.1226,0.1277,0.1303,0.1355,0.1359,0.1424,0.1506,0.1595,0.1844,0.1877,0.2074,0.225,0.2286,0.2335,0.2351,0.2308,0.2218,0.2239,0.2255,0.215,0.2059,0.1984,0,0,0,0,0,0.1154,0.1135,0.1147,0.1164,0.1213,0.1254,0.1349,0.1426,0.1611,0.1633,0.1757,0.1863,0.1974,0.2085,0.2061,0.2227,0.23,0.2187,0.22,0.235,0.2366,0.2262,0,0,0,0,0,0,0.1094,0.1104,0.1103,0.1049,0.1049,0.1086,0.115,0.1267,0.1301,0.1507,0.1587,0.1748,0.189,0.198,0.2031,0.2059,0.2026,0.2316,0.2311,0.2342,0.2356,0.2368,0.2266,0,0,0,0,0]},{"header":{"parameterUnit":"m.s-1","parameterCategory":2,"la1":30.2991,"la2":30.254,"lo1":-89.0895,"lo2":-89.0444,"dy":0.0017,"dx":0.0017,"nx":28,"ny":28,"refTime":"2025-03-08T03:00:00:Z","depth":"4","parameterNumber":3,"parameterNumberName":"V-component_of_CURRENTS"},"data":[0,0,0,0,0,0,0,0,0,0,0,0,0,0,0,0,0,0,0,0,0,0,0,0,0,0,0,0,0,0,0,0,0,0,0,0,0,0,0,0,0,0,0,0,0,0,0,0,0,0,0,0,0,0,0,0,0,0,0.0107,0.0106,0,0.0079,0.0078,0.0078,0.0058,0.0058,0.0058,0.0058,0.0026,0.0025,0.0025,0,0,0,0,0,0,0,0,0,0,0,0,0,0.0121,0.0121,0.0107,0.0106,0.0106,0.0079,0.0078,0.0078,0.0058,0.0058,0.0058,0.0058,0.0026,0.0025,0.0024,0,0,0,0,0,0,0,0,0,0,0,0,0,0.0106,0.0121,0.0107,0.0093,0.0091,0.0079,0.0078,0.0078,0.0058,0.0058,0.0058,0.0058,0.0026,0.0025,0.0024,0.0022,0,0,0.0021,0.0021,0,0,0,0,0,0,0,0,0.0107,0.0105,0.0095,0.0094,0.0092,0.0072,0.0072,0.0059,0.0058,0.0071,0.0058,0.0057,0.0041,0.0039,0.0034,0.0021,0.0019,0.0021,0.002,0.002,0.002,0,0,0,0,0,0,0,0.0108,0.0106,0.0095,0.0095,0.0093,0.0081,0.0078,0.0069,0.0057,0.007,0.0068,0.0065,0.004,0.0035,0.0033,0.0019,0.0021,0.002,0.0019,0.0019,0.0007,0.0008,0,0,0,0,0,0,0.0113,0.0107,0.0096,0.0095,0.0099,0.0081,0.0078,0.0078,0.0057,0.0054,0.0066,0.0064,0.0037,0.0034,0.0032,0.0043,0.002,0.0019,0.0018,0.0007,0.0007,0.0008,0,0,0,0,0,0,0.0113,0.0112,0.0097,0.01,0.0097,0.0081,0.0081,0.0078,0.0075,0.0054,0.0051,0.0065,0.0037,0.0033,0.0028,0.0041,0.0018,0.0017,0.0007,0.0007,0.0007,0.0055,0,0,0,0,0,0,0.0114,0.0113,0.0115,0.0101,0.0098,0.0098,0.0081,0.0078,0.0073,0.0072,0.0053,0.005,0.0036,0.003,0.0027,0.0039,0.0017,0.0006,0.0007,0.0007,0.0053,0.0057,0.006,0,0,0,0,0,0.0115,0.0122,0.0115,0.0114,0.0101,0.0098,0.0096,0.0082,0.0073,0.0077,0.0063,0.0051,0.0032,0.0029,0.0026,0.0038,0.0006,0.0007,0.0007,0.0051,0.0056,0.006,0,0,0,0,0,0,0.0127,0.012,0.0113,0.0116,0.011,0.0095,0.0096,0.0086,0.0077,0.0075,0.0055,0.0051,0.005,0.0036,0.0034,0.0035,0.0017,0.0017,0.0051,0.0056,0.0059,0.0071,0.0016,0,0,0,0,0,0.0131,0.0136,0.0125,0.0128,0.0127,0.0111,0.0108,0.01,0.009,0.0086,0.0072,0.0059,0.005,0.0047,0.0035,0.0038,0.0012,0.0042,0.0046,0.0049,0.0056,0.0023,0.0024,0.001,0.001,0.001,0,0,0.0136,0.0133,0.0135,0.0131,0.0124,0.0133,0.0109,0.0109,0.0118,0.0084,0.0091,0.007,0.0052,0.0054,0.0052,0.0046,0.0039,0.005,0.0053,0.0058,0.0024,0.0025,0.0026,0.0011,0.001,0.001,0,0,0.0154,0.0147,0.0159,0.0159,0.0154,0.0148,0.015,0.0139,0.0136,0.0137,0.0115,0.0102,0.009,0.008,0.0073,0.009,0.0057,0.0086,0.0119,0.0087,0.0088,0.0089,0.0055,0.0052,0.0092,0.0092,0.0092,0,0.016,0.0175,0.0161,0.0176,0.0183,0.0159,0.0179,0.0173,0.0162,0.0164,0.0146,0.0123,0.0104,0.0108,0.0112,0.01,0.0074,0.0105,0.0092,0.0092,0.0092,0.0057,0.0053,0.0094,0.0094,0.0094,0.0094,0,0.019,0.0203,0.0211,0.0224,0.023,0.0241,0.0236,0.0238,0.0227,0.0217,0.0212,0.0179,0.0168,0.0156,0.014,0.0135,0.0114,0.0098,0.0082,0.0096,0.0058,0.0054,0.0098,0.0097,0.0096,0.0096,0,0,0.0202,0.0228,0.0232,0.0255,0.0259,0.0272,0.0286,0.0297,0.0315,0.0284,0.0297,0.0266,0.024,0.0231,0.0203,0.0173,0.0143,0.014,0.0137,0.0109,0.0068,0.0046,0.0039,0.0122,0.0122,0.0121,0.0042,0,0.023,0.0276,0.0279,0.0325,0.0351,0.0344,0.0366,0.037,0.0363,0.0367,0.0321,0.032,0.0272,0.0269,0.023,0.0168,0.0133,0.0166,0.0057,0.0054,0.0035,0.0033,0.012,0.0038,0.0037,0.0036,0.0035,0,0.026,0.029,0.0343,0.0392,0.0403,0.0427,0.0464,0.0485,0.0477,0.0469,0.0445,0.0405,0.0363,0.0317,0.021,0.0233,0.0158,0.0099,0.0094,0.0056,0.0023,0.0021,0.0026,0.0027,0.0028,0.0028,0.0029,0,0.0286,0.0337,0.0386,0.0401,0.0447,0.0475,0.0503,0.0516,0.0552,0.0538,0.0546,0.0477,0.0456,0.0347,0.0219,0.0216,0.009,0.007,-0.0023,-0.0025,-0.0002,-0.0002,-0.0008,-0.0008,-0.0008,-0.0008,-0.0007,0,0.0316,0.0357,0.0407,0.0436,0.0509,0.0524,0.0599,0.0608,0.0637,0.0681,0.0608,0.061,0.0462,0.0369,0.024,0.0092,0.0102,-0.0017,-0.0046,0.0019,0.0022,-0.0007,-0.0005,-0.0011,-0.001,-0.0009,-0.0009,0,0.0336,0.0363,0.0432,0.0496,0.0524,0.0581,0.0677,0.0735,0.074,0.0792,0.0791,0.0715,0.0588,0.0424,0.0248,0.0135,-0.0014,-0.0069,0.0012,-0.0011,-0.0113,-0.0108,-0.0176,-0.0177,-0.0179,-0.018,-0.018,0,0.035,0.0385,0.0482,0.0537,0.0572,0.0663,0.0737,0.0786,0.0847,0.0854,0.088,0.0775,0.0696,0.0438,0.0251,-0.0004,-0.0043,-0.0122,-0.0121,-0.0108,-0.013,-0.0123,-0.0117,-0.0182,-0.0183,-0.0183,-0.0183,0,0.0382,0.0416,0.0476,0.059,0.0679,0.0788,0.0886,0.0936,0.0989,0.0988,0.0957,0.0813,0.0667,0.0449,0.0247,0.0063,-0.0073,-0.0135,-0.0134,-0.0134,-0.0117,-0.0136,-0.0128,-0.0187,-0.0187,-0.0186,-0.0186,0,0.0411,0.046,0.0543,0.0646,0.0758,0.0875,0.093,0.0999,0.1055,0.1048,0.1033,0.0859,0.0763,0.0484,0.0297,0.0109,0.006,-0.0,-0.0007,-0.0005,0.0059,0.0106,0.0081,0,0,0,0,0,0.0441,0.0503,0.0598,0.0713,0.0822,0.0897,0.1014,0.1061,0.1098,0.1091,0.1065,0.0921,0.064,0.0523,0.0333,0.026,0.0018,0.0029,-0.0056,-0.0211,-0.0206,-0.0163,0,0,0,0,0,0,0.0463,0.055,0.0601,0.0747,0.0835,0.097,0.1055,0.1088,0.1085,0.1079,0.0941,0.0861,0.0596,0.0745,0.0324,0.0266,0.0183,-0.0103,-0.0107,-0.0213,-0.0209,-0.0205,-0.016,0,0,0,0,0]}]]